Terminal Aerodrome Forecast
Issued by NWS Columbia, SC

Home | Current Version | Previous Version | Text Only | Print | Product List | Glossary On
Versions: 1 2 3 4 5 6 7 8 9 10 11 12 13 14 15 16 17 18 19 20 21 22 23 24 25 26 27 28 29 30 31 32 33 34 35 36 37 38 39 40 41 42 43 44 45 46 47 48 49 50
000
FTUS42 KCAE 222338
TAFAGS
TAF
KAGS 222338Z 2300/2324 13006KT P6SM SCT035 OVC150
     FM230600 17005KT 5SM BR SCT015
     FM230800 VRB03KT 5SM BR SCT008 OVC012
      TEMPO 2309/2313 2SM BR SCT003 OVC008
     FM231500 20008KT P6SM OVC020
     FM231600 22010KT P6SM BKN035=

USA.gov is the U.S. government's official web portal to all federal, state and local government web resources and services.